Regional Weather Roundup
Issued by NWS Jackson, KY

Home | Current Version | Previous Version | Graphics & Text | Print | Product List | Glossary On
Versions: 1 2 3 4 5 6 7 8 9 10 11 12 13 14 15 16 17 18 19 20 21 22 23 24 25 26 27 28 29 30 31 32 33 34 35 36 37 38 39 40 41 42 43 44 45 46 47 48 49 50
000
ASUS43 KJKL 221110
RWRJKL

EAST KENTUCKY HOURLY WEATHER ROUNDUP
NATIONAL WEATHER SERVICE JACKSON KY
700 AM EDT MON MAY 22 2017

NOTE: "FAIR" INDICATES FEW OR NO CLOUDS BELOW 12,000 FEET WITH
NO SIGNIFICANT WEATHER AND/OR OBSTRUCTIONS TO VISIBILITY.

* THESE REPORTS ARE NOT UNDER NWS QUALITY CONTROL AND MAY NOT
  REPORT WEATHER SUCH AS PRECIPITATION AND FOG.

KYZ079-080-083-085-087-088-110-112-115-119-120-221200
...EASTERN KENTUCKY...

CITY           SKY/WX    TMP DP  RH WIND       PRES   REMARKS
JACKSON        CLOUDY    58  53  84 VRB7      30.13R
LONDON         CLOUDY    59  53  80 N9        30.13R
SOMERSET*      CLOUDY    55  54  94 N5        30.16R
WILLIAMSBURG*  CLOUDY    59  59 100 N6        30.14R
MIDDLESBORO*   CLOUDY    64  61  90 N5        30.11R
HARLAN APT*    CLOUDY    63  57  82 CALM      30.12R
PIKE CO APT*   CLOUDY    63  63 100 W3        30.11R
BIG SANDY APT* CLOUDY    63  61  91 N6        30.11R
MOREHEAD APT*  CLOUDY    55  52  88 NW6       30.15R
ASHLAND*       CLOUDY    59  54  82 NW6       30.09R
$$

KYZ035-036-041-042-044-050-067-078-099-221200
...CENTRAL KENTUCKY...

CITY           SKY/WX    TMP DP  RH WIND       PRES   REMARKS
MT STERLING*   MOCLDY    52  48  87 N5        30.15R
FLEMING/MASON* CLOUDY    53  48  84 NW6       30.14R
DANVILLE*      MOCLDY    52  48  87 N3        30.16R
LEXINGTON      CLOUDY    53  43  68 N3        30.14S
FRANKFORT      CLOUDY    50  47  89 CALM      30.12S
LOUISVILLE     MOCLDY    56  46  69 CALM      30.13S
LEBANON*         N/A     54  48  82 CALM      30.15R
GLASGOW*       CLOUDY    55  50  83 CALM      30.15R
BOWLING GREEN  CLOUDY    56  53  90 CALM      30.15R
$$

KYZ091>093-OHZ055-061-077-WVZ005-015-034-035-042-221200
...SOUTHERN OHIO/WEST VIRGINIA...

CITY           SKY/WX    TMP DP  RH WIND       PRES   REMARKS
COVINGTON      MOCLDY    48  44  86 SW3       30.12R
COLUMBUS       MOCLDY    53  46  77 NW8       30.08R
DAYTON         CLOUDY    48  42  80 SW7       30.10S
WILMINGTON     CLEAR     51  44  77 W5        30.09S
HUNTINGTON     CLOUDY    59  50  72 NW14      30.10R
CHARLESTON     CLOUDY    65  61  87 SW6       30.06R
PINEVILLE*     CLOUDY    61  61  98 MISG      30.13S
BECKLEY        CLOUDY    60  57  89 SE5       30.10R
BLUEFIELD      CLOUDY    57  56  96 CALM      30.13R FOG
LOGAN CO APT*  CLOUDY    63  61  94 CALM      30.09R
$$

VAZ002-007-008-TNZ017-027-036-066-071-221200
...SOUTHWEST VIRGINIA/EAST TENNESSEE...

CITY           SKY/WX    TMP DP  RH WIND       PRES   REMARKS
JONESVILLE*    PTSUNNY   63  63 100 CALM      30.11R FOG
ABINGDON*      CLOUDY    62  62 100 CALM      30.11R
BRISTOL        CLOUDY    63  61  93 CALM      30.10R
MORRISTOWN*    CLOUDY    64  64 100 CALM      30.07F
SEVIERVILLE*   CLOUDY    64  64 100 CALM      30.07S
KNOXVILLE      CLOUDY    68  64  87 CALM      30.07R
LAFOLLETTE*    CLOUDY    64  59  82 NE6       30.13R
OAK RIDGE      CLOUDY    66  64  93 CALM      30.09R FOG
CROSSVILLE     MOCLDY    58  56  93 N5        30.14R
NASHVILLE      CLOUDY    60  53  77 N7        30.16R
$$

...KEY TO REMARKS...
VSB - VISIBILITY IN MILES
WCI - WIND CHILL INDEX
HX  - HEAT INDEX

$$



USA.gov is the U.S. government's official web portal to all federal, state and local government web resources and services.